Wind_Speed
28 30 31 32 33 35 36 37 39 41 42 44 45 47 47 48 49 52 51 47 44 43 44 44 45 44 42 39 38 36 35 33 36 37 36 33 33 32 31 28 25 22 23
31 32 33 34 36 38 39 41 42 44 46 48 48 50 51 52 52 53 54 55 53 50 46 46 46 44 45 43 41 38 37 37 38 38 40 38 37 38 36 31 29 26 24
33 33 35 36 38 40 40 42 45 48 49 49 50 50 52 54 57 57 57 58 57 57 54 49 47 47 44 48 46 47 44 43 42 37 38 36 38 43 41 35 32 30 27
33 35 37 38 39 40 43 46 47 47 48 50 51 50 50 52 53 56 59 59 60 59 59 56 52 48 48 47 46 52 49 48 47 44 46 42 32 43 44 40 36 32 30
34 35 37 39 40 43 45 46 47 48 48 47 48 49 52 54 56 57 57 59 59 60 60 59 57 53 49 50 49 50 53 49 49 48 50 52 52 46 47 42 38 35 33
34 36 38 39 39 40 44 45 44 42 42 43 44 44 45 47 49 51 56 58 58 59 59 59 58 56 53 50 48 48 49 50 51 50 49 52 52 48 48 43 42 40 38
35 36 36 36 35 37 42 44 43 40 36 39 40 40 39 38 37 37 40 48 55 55 56 57 56 56 54 52 50 47 49 52 53 50 47 43 38 52 50 44 42 41 39
35 35 34 32 32 33 39 44 39 36 33 36 37 37 37 31 28 32 31 36 41 46 50 49 51 53 52 52 52 51 49 50 50 50 45 45 48 51 49 45 42 42 37
32 30 27 29 32 36 37 44 40 35 32 31 34 37 39 36 30 19 25 27 30 35 42 45 47 49 50 51 53 54 52 50 50 52 47 43 47 50 51 47 42 42 44
27 26 27 31 33 34 34 38 40 38 34 31 30 31 34 35 33 14 19 17 20 20 26 38 45 47 48 52 54 55 55 52 51 53 53 45 47 43 42 41 48 52 45
25 25 28 30 32 32 34 36 39 43 37 33 30 27 27 27 27 23 10 17 17 18 15 18 32 45 48 52 53 52 51 50 54 53 55 50 43 47 46 39 37 54 48
24 26 28 29 29 30 31 33 36 37 41 34 29 26 26 25 23 21 15 18 25 20 17 18 25 27 38 49 49 51 51 50 46 45 48 51 49 49 47 45 43 43 44
24 25 25 25 26 28 29 30 33 34 36 33 27 25 24 22 21 18 17 12 31 23 28 23 21 20 33 37 47 48 47 49 45 41 41 45 43 46 46 45 44 43 42
22 23 23 24 24 25 27 28 29 29 30 33 32 23 22 22 19 18 15 13 14 35 27 16 18 24 24 32 36 45 43 42 47 41 35 34 38 33 36 34 33 36 34
20 21 21 21 22 22 24 26 28 28 29 31 34 21 18 23 19 16 12 11 8 30 27 19 25 27 29 36 24 31 19 35 24 19 37 33 33 30 28 29 28 27 31
19 19 19 19 19 21 22 23 25 27 26 28 35 23 22 23 22 15 10 6 7 11 24 9 14 26 19 19 25 25 32 37 29 34 31 24 27 29 29 28 27 27 26
18 17 17 16 17 18 19 20 22 24 24 26 29 29 25 24 23 15 7 3 3 1 20 24 30 28 27 27 32 33 25 28 32 28 22 21 22 22 23 22 22 21 19
16 15 14 14 14 15 16 16 18 20 21 24 26 27 31 26 24 19 11 1 1 1 1 16 34 37 32 25 12 18 20 32 27 29 32 29 32 30 25 22 20 19 21
15 14 12 11 12 13 13 14 16 17 18 20 23 25 26 32 25 25 17 8 3 6 5 6 5 13 20 19 16 11 15 20 22 23 27 22 27 23 22 27 24 24 25
14 13 11 10 10 11 11 12 14 15 16 18 20 22 24 24 30 31 25 16 9 6 3 1 6 5 7 10 11 11 18 14 24 23 18 22 26 26 25 24 30 31 31
14 13 11 10 9 9 10 11 12 14 15 16 18 19 21 22 24 24 31 30 19 12 8 5 4 11 9 11 10 9 12 13 15 19 22 21 26 28 28 30 33 32 32
14 13 12 11 10 9 9 9 10 12 13 15 16 18 19 20 20 20 23 23 21 23 16 10 3 2 6 8 8 16 8 9 14 18 13 12 15 19 18 21 23 26 31
14 13 13 12 10 9 9 9 9 9 11 12 14 16 17 18 18 18 19 20 19 17 15 14 13 6 2 3 6 9 9 8 9 9 10 8 9 12 13 14 17 22 24
14 14 14 13 12 10 9 9 10 9 9 10 11 12 14 15 16 17 17 18 17 16 13 12 10 9 8 7 5 3 1 3 6 7 8 10 11 10 12 13 14 13 13
15 15 15 14 13 11 11 10 10 10 9 9 9 9 10 11 12 14 16 16 15 14 11 9 7 6 6 5 4 2 2 2 4 5 6 7 8 9 10 10 11 12 12
14 14 15 15 14 12 12 12 11 11 10 10 9 8 8 9 10 12 14 15 15 14 12 11 10 9 7 5 3 3 4 5 5 6 6 8 8 9 10 10 10 12 13
Wind_Direction
309 305 301 299 296 294 292 290 289 287 284 281 279 277 273 270 268 267 266 261 255 254 252 252 247 248 246 242 243 241 239 234 236 247 239 236 240 236 232 230 230 227 232
312 308 306 305 303 301 299 296 293 290 287 283 280 278 277 274 270 266 263 261 258 254 250 249 250 246 245 244 239 240 240 236 246 245 242 238 233 236 234 227 228 227 227
316 311 308 306 305 303 302 300 298 295 291 287 284 280 275 272 270 267 264 262 257 255 252 248 246 245 244 241 237 238 236 240 242 243 242 241 242 235 236 227 224 226 224
318 315 313 312 311 309 308 305 301 298 295 292 288 286 284 278 273 268 265 261 259 255 252 249 244 243 241 243 242 244 233 238 241 242 235 235 236 243 235 227 226 223 224
320 319 318 317 316 313 311 309 307 303 299 294 291 288 284 281 277 271 264 261 258 254 251 248 245 240 238 239 239 239 238 236 240 244 241 246 254 258 230 229 225 221 225
321 320 319 319 320 322 320 319 316 310 305 300 297 294 292 287 280 273 266 260 257 253 249 245 243 239 236 237 237 238 236 238 241 246 251 257 255 226 223 230 226 221 221
322 322 322 323 324 329 332 329 321 312 307 302 301 299 295 291 292 285 273 264 258 252 249 245 241 236 232 232 232 230 233 237 240 243 246 247 222 219 224 227 230 234 213
323 322 322 326 329 330 341 339 329 319 313 312 311 306 302 298 290 287 282 271 262 254 246 244 241 237 229 227 228 227 229 233 236 236 238 240 230 223 221 223 227 229 229
318 321 323 325 330 333 333 342 339 332 322 314 314 313 314 310 304 283 279 275 267 255 243 237 235 235 230 224 225 226 228 230 229 231 234 234 224 227 228 229 226 228 225
318 319 320 327 329 334 336 342 351 345 333 326 321 314 316 317 316 309 279 249 258 261 250 234 229 227 224 222 224 223 226 227 227 231 231 231 233 236 240 231 228 234 227
315 317 319 321 326 330 339 339 341 351 342 336 322 317 317 319 317 317 282 228 215 226 235 222 224 223 221 221 225 226 227 228 229 235 234 236 242 239 239 242 239 230 227
315 314 316 321 327 331 336 341 343 346 347 341 331 325 323 323 323 319 309 226 214 183 161 167 209 226 223 221 224 227 227 230 233 231 236 236 242 242 241 244 249 239 238
313 314 318 324 330 338 341 342 350 347 351 350 341 337 335 323 324 319 302 292 216 209 189 213 191 186 209 222 224 228 228 230 235 234 236 236 238 236 241 247 252 248 256
309 314 320 324 331 340 345 349 350 352 358 2 355 337 339 332 325 318 304 292 235 217 223 201 221 201 200 225 224 230 230 229 234 231 230 233 236 239 247 244 249 248 259
311 318 323 331 339 345 349 355 354 348 354 3 4 356 351 345 335 322 307 292 266 214 225 240 225 214 227 219 217 210 207 228 218 238 235 233 238 241 243 246 248 249 250
313 319 323 332 339 342 347 354 356 356 359 7 15 15 7 357 351 338 318 309 279 225 209 197 227 237 223 230 212 221 217 237 247 245 240 238 235 235 242 247 251 251 256
309 316 323 333 338 343 350 356 357 0 6 8 16 20 13 10 7 358 346 12 359 266 223 229 240 239 233 215 219 218 214 221 224 234 209 209 218 224 233 235 242 242 252
305 311 317 328 335 342 348 355 358 360 7 15 18 17 21 19 20 19 21 72 28 133 236 231 241 249 256 275 268 240 232 236 225 216 224 226 227 236 236 238 242 251 259
303 301 309 321 332 339 344 355 0 2 8 14 22 22 22 31 34 32 37 57 55 214 189 228 218 242 247 245 255 240 264 272 248 245 252 258 246 232 238 243 249 258 264
295 294 302 313 325 333 341 352 359 1 9 18 25 28 26 32 43 49 44 54 74 93 63 158 195 218 213 196 229 250 269 249 264 274 246 247 259 259 250 250 250 243 248
287 288 298 303 314 325 338 346 356 0 5 14 20 27 31 32 38 48 59 51 47 47 47 74 230 227 207 192 215 178 207 248 261 263 250 237 237 239 236 236 239 240 242
281 284 289 291 299 312 326 335 353 359 0 11 14 19 27 31 33 42 52 55 53 51 45 40 53 155 168 204 213 239 218 226 244 228 245 258 247 249 249 253 257 255 250
280 280 281 282 288 297 312 324 337 354 354 5 12 17 19 24 27 32 45 48 45 43 48 56 57 54 103 150 162 185 196 220 229 241 237 233 231 227 227 240 259 267 270
275 274 276 277 281 290 301 311 322 336 348 353 5 12 16 23 20 27 30 36 38 33 31 36 42 46 48 59 69 79 204 229 230 228 239 245 250 252 257 255 255 255 252
274 272 273 275 279 286 294 301 310 318 332 340 352 1 9 15 20 26 27 23 25 18 13 27 36 33 26 20 9 343 283 235 233 240 247 241 237 244 244 246 253 258 264
277 278 278 278 279 285 291 295 300 306 318 327 336 346 357 357 3 12 14 11 10 1 354 357 359 360 0 357 339 310 295 286 277 264 258 260 259 260 263 265 263 267 267
Height
3136 3134 3131 3128 3126 3123 3120 3117 3114 3112 3109 3107 3104 3102 3102 3101 3100 3099 3099 3103 3104 3105 3107 3107 3110 3114 3115 3118 3120 3123 3125 3128 3130 3133 3135 3136 3139 3141 3144 3146 3148 3149 3152
3130 3127 3124 3121 3117 3114 3110 3107 3103 3100 3098 3095 3093 3091 3089 3087 3086 3086 3085 3087 3090 3093 3094 3096 3100 3103 3106 3109 3111 3114 3118 3120 3122 3125 3128 3129 3131 3134 3136 3138 3142 3144 3146
3124 3121 3117 3113 3109 3105 3101 3097 3093 3088 3084 3081 3078 3077 3074 3072 3070 3070 3070 3071 3074 3078 3082 3084 3087 3091 3094 3098 3100 3103 3108 3111 3113 3116 3119 3121 3123 3126 3128 3131 3133 3137 3139
3117 3113 3108 3104 3100 3095 3091 3086 3080 3075 3071 3066 3063 3061 3058 3056 3055 3054 3053 3054 3056 3060 3064 3070 3074 3078 3083 3086 3089 3093 3097 3100 3104 3106 3109 3111 3112 3117 3120 3122 3126 3129 3133
3108 3104 3099 3095 3091 3086 3080 3074 3068 3062 3057 3053 3049 3046 3043 3039 3037 3035 3035 3036 3038 3041 3046 3053 3058 3065 3069 3072 3077 3081 3086 3089 3093 3095 3098 3100 3103 3106 3111 3111 3117 3121 3126
3101 3097 3091 3087 3081 3075 3069 3064 3057 3050 3044 3039 3035 3032 3028 3023 3019 3017 3016 3017 3019 3023 3027 3034 3042 3049 3055 3060 3064 3069 3074 3078 3082 3085 3087 3088 3090 3095 3101 3104 3105 3111 3117
3094 3089 3084 3079 3075 3069 3061 3053 3047 3041 3036 3029 3024 3021 3016 3011 3007 3003 3000 3000 3002 3006 3011 3017 3024 3031 3040 3046 3052 3057 3062 3067 3071 3075 3076 3079 3080 3088 3092 3095 3098 3091 3106
3087 3083 3078 3073 3068 3064 3058 3050 3041 3033 3027 3019 3014 3010 3004 3003 3000 2991 2990 2987 2988 2991 2996 3003 3011 3017 3026 3032 3039 3044 3050 3055 3059 3063 3067 3070 3075 3078 3081 3086 3090 3093 3096
3082 3078 3074 3069 3064 3058 3052 3044 3035 3027 3021 3014 3008 3000 2992 2989 2986 2988 2981 2979 2978 2979 2984 2990 2997 3005 3014 3021 3025 3031 3037 3042 3047 3051 3057 3060 3065 3069 3074 3078 3082 3086 3091
3077 3073 3069 3064 3060 3055 3048 3040 3031 3021 3016 3008 3004 2997 2989 2981 2976 2981 2975 2974 2974 2974 2974 2980 2986 2993 3001 3007 3011 3018 3024 3030 3036 3041 3047 3051 3055 3059 3063 3068 3072 3077 3083
3072 3068 3065 3061 3057 3051 3044 3035 3028 3020 3011 3002 2997 2993 2988 2981 2974 2971 2971 2970 2971 2970 2973 2976 2977 2982 2990 2996 3003 3010 3017 3022 3027 3032 3037 3043 3048 3051 3057 3060 3063 3065 3073
3066 3064 3062 3058 3052 3047 3040 3033 3026 3017 3009 2999 2993 2987 2981 2975 2971 2968 2965 2965 2967 2967 2969 2969 2973 2976 2982 2988 2994 3001 3009 3014 3018 3025 3030 3035 3041 3045 3049 3053 3056 3060 3062
3064 3061 3058 3053 3048 3042 3036 3030 3023 3016 3008 2998 2991 2983 2977 2972 2967 2965 2961 2961 2961 2963 2964 2969 2970 2972 2978 2982 2987 2993 3001 3007 3011 3017 3022 3028 3032 3036 3040 3046 3048 3050 3052
3060 3057 3053 3049 3044 3038 3033 3027 3020 3015 3007 2997 2988 2980 2975 2969 2964 2960 2957 2955 2956 2957 2959 2963 2966 2969 2974 2977 2983 2987 2993 3000 3004 3010 3016 3021 3025 3029 3034 3037 3040 3041 3044
3055 3052 3049 3045 3040 3036 3030 3024 3019 3014 3006 2998 2987 2978 2973 2967 2962 2957 2953 2951 2951 2953 2957 2960 2962 2966 2969 2976 2978 2984 2989 2994 3001 3003 3009 3014 3017 3021 3025 3029 3032 3034 3036
3050 3048 3044 3041 3037 3033 3028 3022 3018 3013 3006 2998 2988 2979 2973 2966 2959 2954 2950 2949 2949 2949 2954 2958 2959 2960 2965 2969 2974 2981 2984 2990 2994 2999 3003 3007 3012 3015 3018 3022 3024 3027 3030
3046 3043 3039 3037 3034 3030 3026 3021 3017 3012 3006 2998 2990 2982 2974 2967 2959 2954 2949 2949 2949 2949 2951 2953 2955 2959 2963 2969 2974 2978 2979 2984 2990 2993 2996 3000 3006 3009 3012 3015 3018 3020 3022
3041 3039 3036 3033 3031 3028 3024 3020 3016 3011 3006 3000 2993 2985 2978 2968 2961 2955 2950 2949 2950 2951 2952 2954 2956 2957 2960 2965 2967 2975 2975 2980 2985 2988 2991 2994 2999 3002 3005 3008 3011 3014 3015
3037 3036 3033 3030 3028 3025 3022 3019 3014 3010 3006 3001 2994 2988 2981 2973 2965 2959 2954 2952 2952 2953 2954 2956 2956 2957 2960 2965 2968 2970 2971 2975 2979 2979 2984 2988 2991 2994 2998 3002 3004 3007 3009
3033 3032 3030 3027 3025 3023 3021 3017 3013 3010 3006 3001 2995 2990 2985 2978 2972 2964 2960 2957 2956 2956 2956 2956 2957 2959 2960 2962 2965 2966 2970 2972 2974 2976 2980 2984 2985 2987 2991 2995 2998 2999 3001
3030 3028 3026 3025 3023 3021 3019 3016 3013 3009 3006 3001 2998 2992 2988 2983 2977 2971 2966 2963 2960 2959 2958 2957 2957 2959 2960 2962 2964 2965 2969 2968 2970 2973 2974 2977 2978 2980 2983 2985 2987 2990 2992
3025 3024 3023 3022 3020 3019 3017 3015 3011 3008 3005 3001 2998 2994 2990 2986 2982 2977 2972 2968 2966 2964 2962 2960 2960 2960 2960 2962 2963 2964 2966 2967 2969 2969 2971 2970 2972 2973 2976 2978 2980 2982 2983
3021 3020 3020 3019 3018 3016 3015 3013 3010 3007 3005 3001 2998 2995 2992 2988 2984 2981 2977 2973 2971 2969 2968 2965 2963 2963 2962 2961 2962 2963 2964 2964 2965 2966 2967 2968 2969 2970 2972 2973 2974 2975 2976
3016 3016 3016 3015 3014 3013 3012 3010 3009 3006 3003 3001 2998 2995 2992 2989 2987 2983 2981 2977 2975 2973 2971 2969 2967 2966 2964 2963 2963 2962 2962 2962 2962 2963 2964 2965 2965 2966 2967 2968 2969 2970 2970
3012 3012 3012 3011 3011 3010 3008 3007 3006 3004 3002 3000 2998 2995 2993 2991 2988 2985 2982 2981 2978 2976 2974 2972 2970 2968 2967 2965 2964 2964 2963 2963 2962 2962 2962 2962 2963 2963 2964 2964 2964 2964 2964
3008 3008 3008 3007 3007 3006 3005 3004 3003 3002 3000 2998 2996 2994 2992 2990 2988 2986 2983 2981 2979 2977 2975 2973 2970 2968 2967 2966 2965 2964 2963 2962 2961 2960 2960 2960 2959 2959 2959 2958 2959 2959 2959